Weather History for CYRB - October, 2013

Change the Weather History Date:

Friday, October 25, 2013

  Actual Average Record
Temperature  
Mean Temperature 15 °F -  
Max Temperature 18 °F 6 °F 28 °F (2006)
Min Temperature 12 °F -1 °F -14 °F (1997)
Degree Days  
Heating Degree Days 50    
Moisture  
Dew Point 14 °F    
Average Humidity 88    
Maximum Humidity 96    
Minimum Humidity 79    
Precipitation  
Precipitation 0.02 in - - ()
Sea Level Pressure  
Sea Level Pressure 29.61 in    
Wind  
Wind Speed 7 mph ()    
Max Wind Speed 15 mph    
Max Gust Speed -    
Visibility 7.9 miles    
Events Snow    
Averages and records for this station are not official NWS values.
T = Trace of Precipitation, MM = Missing Value Source: Averaged Metar Reports

Daily Weather History Graph

Daily Weather History Graph

Search for Another Location

Airport or City:

Trip Planner

Search our weather history database for the weather conditions in past years. The results will help you decide how hot, cold, wet, or windy it might be!

Date:

Astronomy

Oct. 25, 2013 Rise Set
Actual Time 10:15 AM CDT 3:50 PM CDT
Civil Twilight 8:35 AM CDT 5:29 PM CDT
Nautical Twilight 7:01 AM CDT 7:04 PM CDT
Astronomical Twilight 5:27 AM CDT 8:36 PM CDT
Moon No Moon Rise No Moon Set
Length of Visible Light 8h 54m
Length of Day
5h 35m
Waning Gibbous, 62% of the Moon is Illuminated
Oct 25
Waning Gibbous
Oct 26
Last Quarter
Nov 3
New
Nov 9
First Quarter
Nov 17
Full

Hourly Weather History & Observations

Time (CDT) Temp. Windchill Dew Point Humidity Pressure Visibility Wind Dir Wind Speed Gust Speed Precip Events Conditions
12:00 AM 17.6 °F 7.3 °F 14.0 °F 86% 29.56 in 10.0 mi SE 8.1 mph - N/A Snow Light Snow
1:00 AM 18 °F - 15 °F 81% 29.55 in 15 mi SE 10.4 mph - - Snow Light Snow
1:00 AM 17.6 °F 5.7 °F 14.0 °F 86% 29.55 in 15.0 mi SE 10.4 mph - N/A Snow Light Snow
2:00 AM 17.6 °F 7.3 °F 14.0 °F 86% 29.55 in 15.0 mi ESE 8.1 mph - N/A Snow Light Snow
3:00 AM 17.6 °F 6.4 °F 14.0 °F 86% 29.56 in 15.0 mi SE 9.2 mph - N/A Snow Light Snow
4:00 AM 17.6 °F 7.3 °F 15.8 °F 93% 29.55 in 10.0 mi SE 8.1 mph - N/A Snow Light Snow
5:00 AM 19.4 °F 9.5 °F 15.8 °F 86% 29.55 in 10.0 mi SE 8.1 mph - N/A Snow Light Snow
6:00 AM 17.6 °F 7.3 °F 15.8 °F 93% 29.55 in 4.0 mi SSE 8.1 mph - N/A Snow Light Snow
7:00 AM 18 °F - 15 °F 85% 29.55 in 12 mi SSE 8.1 mph - - Snow Light Snow
7:00 AM 17.6 °F 7.3 °F 15.8 °F 93% 29.55 in 12.0 mi SSE 8.1 mph - N/A Snow Light Snow
8:00 AM 17.6 °F 7.3 °F 15.8 °F 93% 29.56 in 12.0 mi SSE 8.1 mph - N/A Snow Light Snow
9:00 AM 17.6 °F 8.2 °F 15.8 °F 93% 29.56 in 10.0 mi SE 6.9 mph - N/A Snow Light Snow
9:38 AM - - - N/A% - 2.5 mi SE 5.8 mph - N/A   Overcast
10:00 AM 17.6 °F 9.3 °F 15.8 °F 93% 29.57 in 4.0 mi SE 5.8 mph - N/A Snow Light Snow
10:26 AM - - - N/A% - 6.0 mi SE 5.8 mph - N/A   Overcast
11:00 AM 17.6 °F 10.7 °F 15.8 °F 93% 29.57 in 6.0 mi SSE 4.6 mph - N/A Snow Light Snow
11:31 AM - - - N/A% - 6.0 mi SSE 4.6 mph - N/A   Overcast
12:00 PM 17.6 °F 12.3 °F 15.8 °F 93% 29.58 in 8.0 mi South 3.5 mph - N/A Snow Light Snow
1:00 PM 18 °F - 17 °F 96% 29.60 in 6 mi SSE 2.3 mph - - Snow Light Snow
1:00 PM 17.6 °F - 15.8 °F 93% 29.60 in 6.0 mi SSE 2.3 mph - N/A Snow Light Snow
1:40 PM - - - N/A% - 1.5 mi ESE 3.5 mph - N/A   Unknown
2:00 PM 17.6 °F 10.7 °F 14.0 °F 86% 29.61 in 3.0 mi East 4.6 mph - N/A Snow Light Snow
3:00 PM 17.6 °F 10.7 °F 14.0 °F 86% 29.62 in 4.0 mi ENE 4.6 mph - N/A Snow Light Snow
4:00 PM 15.8 °F 10.2 °F 12.2 °F 86% 29.64 in 4.0 mi NE 3.5 mph - N/A Snow Light Snow
5:00 PM 15.8 °F 6.1 °F 12.2 °F 86% 29.65 in 4.0 mi NNE 6.9 mph - N/A Snow Light Snow
6:00 PM 15.8 °F 7.2 °F 12.2 °F 86% 29.67 in 6.0 mi NNE 5.8 mph - N/A Snow Light Snow
7:00 PM 14 °F - 11 °F 80% 29.69 in 7 mi NNE 5.8 mph - - Snow Light Snow
7:00 PM 14.0 °F 5.1 °F 10.4 °F 86% 29.69 in 8.0 mi NNE 5.8 mph - N/A Snow Light Snow
8:00 PM 14.0 °F 1.2 °F 10.4 °F 86% 29.70 in 8.0 mi NNE 10.4 mph - N/A Snow Light Snow
9:00 PM 14.0 °F -0.2 °F 8.6 °F 79% 29.71 in 6.0 mi NNE 12.7 mph - N/A Snow Light Snow
10:00 PM 12.2 °F -3.7 °F 6.8 °F 79% 29.73 in 8.0 mi North 15.0 mph - N/A Snow Light Snow
11:00 PM 12.2 °F -2.5 °F 8.6 °F 85% 29.75 in 8.0 mi North 12.7 mph - N/A Snow Light Snow